Location: Newark
(40.7066°N, 111.8219°W)
Time: 02:53:47
(UTC+00:00)

Courier 1B Rocket - Visible Passes

Search period start: 21 November 2019 00:00
Search period end: 01 December 2019 00:00
Orbit: 920 x 1202 km, 28.2° (Epoch: 19 November)

Date Brightness Start Highest point End Pass type
(mag) Time Alt. Az. Time Alt. Az. Time Alt. Az.
21 Nov 7.2 02:11:12 10° WSW 02:16:36 21° SSW 02:22:08 10° SSE visible
22 Nov 7.1 01:09:52 10° WSW 01:15:40 25° SSW 01:21:39 10° SE visible
22 Nov 7.6 03:05:36 10° SW 03:08:20 12° SSW 03:11:04 10° S visible
23 Nov 7.6 02:03:07 10° WSW 02:07:27 16° SSW 02:11:52 10° SSE visible
24 Nov 7.4 01:01:29 10° WSW 01:06:33 20° SSW 01:11:48 10° SSE visible
25 Nov 7.8 01:56:12 10° SW 01:58:16 11° SSW 02:00:23 10° S visible
26 Nov 7.7 00:53:33 10° SW 00:57:25 15° SSW 01:01:24 10° S visible
28 Nov 8.1 00:47:37 10° SSW 00:48:17 10° SSW 00:48:57 10° SSW visible
